Погода в Актале

Россия / Республика Алтай     49°55′09″N   88°53′35″E
темп.,
°C
ветер,
м/с
пор.,
м/с
влажн.,
%
обл.,
%
осадки,
мм/ч
давл.,
гПа
погр.,
м
7 мая, пт
пт701:00+7зюз11419 0.0 101310
04:00+6ююз114054 0.0 101410
07:00+7в113651 0.0 101416
10:00+11юз112896 0.0 1012490
13:00+15зюз2321100 0.0 10101046
16:00+17зюз4621100 0.0 10072158
19:00+14з363798 0.0 10071612
22:00+9сз136886 0.1 1012718
8 мая, сб
сб801:00+7сз128098 0.5 1013682
04:00+5с348794 0.6 1014359
07:00+4ссз1273100 0.8 1017462
10:00+7ссз224751 0.0 10161090
13:00+10ссз442690 0.0 10141606
16:00+11с56295 0.0 10131784
19:00+9с56315 0.0 10141838
22:00+6ссв34435 0.0 1016149
9 мая, вс
вс901:00+4ссв22500 0.0 101729
04:00+3ссв22580 0.0 101717
07:00+4ссв11560 0.0 1018124
10:00+7зюз23370 0.0 10161074
13:00+11зсз36151 0.0 10132586
16:00+12сз59135 0.0 10122912
19:00+10сз681548 0.0 10121994
22:00+6ссв223160 0.0 101457
10 мая, пн
пн1001:00+5св223632 0.0 101317
04:00+3св11407 0.0 101210
07:00+5в1134100 0.0 101172
10:00+8ююз122566 0.0 1010721
13:00+11зюз34215 0.0 10081285
16:00+13з251828 0.0 10052574
19:00+12з593016 0.1 10032088
22:00+9зюз484820 0.2 1004312
11 мая, вт
вт1101:00+5сз3473100 1.4 1006629
04:00+3юв0189100 3.4 1008196
07:00+3з128162 3.7 1008416
10:00+6з126299 0.0 1007882
13:00+10з3441100 0.1 10051908
16:00+10ссз3446100 0.7 10041278
19:00+8св2250100 1.4 1005962
22:00+6с227095 0.8 1007435